EW3090 Weather Reports


Display with metric or nautical units.
time (UTC)temp
F
wind
direction
speed
MPH
gust
MPH
rain 1hr
in
rain 24hr
in
rain mn
in
humidity
%
barometer
mb
20260906071542 66 265 0.0 0.0 0.00 0.00 0.00 87 1014.3
20260906070041 66 269 0.0 0.0 0.00 0.00 0.00 87 1014.3
20260906064538 66 262 0.0 0.0 0.00 0.00 0.00 88 1014.1
20260906063044 66 263 0.0 0.0 0.00 0.00 0.00 88 1014.1
20260906061535 66 263 0.0 0.0 0.00 0.00 0.00 89 1014.0
20260906060035 67 262 0.0 0.0 0.00 0.00 0.00 89 1014.0
20260906054549 67 262 0.0 0.0 0.00 0.00 0.00 89 1014.0
20260906053029 67 254 0.0 0.0 0.00 0.00 0.00 89 1013.8
20260906051533 68 246 1.0 3.0 0.00 0.00 0.00 89 1013.8
20260906050030 68 242 2.0 4.0 0.00 0.00 0.00 89 1013.8
20260906044554 69 270 1.0 3.0 0.00 0.00 0.00 89 1013.6
20260906043052 69 270 1.0 4.0 0.00 0.00 0.00 89 1013.5
20260906041546 70 269 2.0 6.0 0.00 0.00 0.00 89 1013.3
20260906040048 70 271 1.0 7.0 0.00 0.00 0.00 89 1013.4
20260906034548 71 267 2.0 7.0 0.00 0.00 0.00 89 1013.4
20260906033039 71 262 3.0 7.0 0.00 0.00 0.00 88 1013.2
20260906031600 72 280 1.0 3.0 0.00 0.00 0.00 88 1013.1
20260906030033 72 269 0.0 4.0 0.00 0.00 0.00 88 1013.1
20260906024551 72 269 1.0 8.0 0.00 0.00 0.00 88 1013.0
20260906023029 73 259 2.0 8.0 0.00 0.00 0.00 88 1012.9
20260906021525 73 245 3.0 13.0 0.00 0.00 0.00 88 1012.7
20260906020022 74 252 4.0 12.0 0.00 0.00 0.00 88 1013.0
20260906014520 74 268 2.0 7.0 0.00 0.00 0.00 88 1012.8
20260906013017 74 262 3.0 9.0 0.00 0.00 0.00 88 1012.5
20260906011509 75 248 3.0 8.0 0.00 0.00 0.00 88 1011.8
20260906010017 75 260 3.0 8.0 0.00 0.00 0.00 88 1011.5
20260906004505 76 269 0.0 6.0 0.00 0.00 0.00 87 1011.6
20260906003006 76 272 5.0 9.0 0.00 0.00 0.00 87 1011.6
20260906001554 77 261 2.0 8.0 0.00 0.00 0.00 87 1011.3
20260906000059 77 256 6.0 11.0 0.00 0.00 0.00 87 1011.2
20260905234553 79 269 1.0 9.0 0.00 0.00 0.00 86 1011.0
20260905233044 80 249 0.0 2.0 0.00 0.00 0.00 85 1011.0
20260905231547 80 263 0.0 4.0 0.00 0.00 0.00 84 1011.1
20260905230045 81 274 0.0 7.0 0.00 0.00 0.00 83 1011.2
20260905224541 82 269 0.0 0.0 0.00 0.00 0.00 81 1011.0
20260905223038 82 257 0.0 4.0 0.00 0.00 0.00 82 1010.7
20260905221544 82 263 0.0 7.0 0.00 0.00 0.00 81 1010.8
20260905220043 82 255 0.0 0.0 0.00 0.00 0.00 83 1010.4
20260905214543 82 250 0.0 0.0 0.00 0.00 0.00 82 1010.4
20260905213045 82 256 0.0 3.0 0.00 0.00 0.00 80 1010.3
20260905211508 84 250 0.0 0.0 0.00 0.00 0.00 78 1010.0
20260905210105 84 260 0.0 0.0 0.00 0.00 0.00 77 1010.2
20260905204558 86 263 0.0 11.0 0.00 0.00 0.00 75 1010.3
20260905203050 87 244 0.0 0.0 0.00 0.00 0.00 72 1010.4
20260905201552 87 242 0.0 0.0 0.00 0.00 0.00 68 1010.7
20260905200041 89 181 0.0 0.0 0.00 0.00 0.00 67 1010.7
20260905194537 90 242 0.0 0.0 0.00 0.00 0.00 64 1010.7
20260905193038 90 197 0.0 0.0 0.00 0.00 0.00 63 1010.9
20260905191534 90 137 0.0 0.0 0.00 0.00 0.00 66 1011.1
20260905190033 89 145 0.0 0.0 0.00 0.00 0.00 66 1011.3
20260905184528 89 129 0.0 0.0 0.00 0.00 0.00 64 1011.3
20260905183032 88 138 0.0 0.0 0.00 0.00 0.00 68 1011.6
20260905181523 88 90 0.0 0.0 0.00 0.00 0.00 68 1011.7
20260905180020 87 116 0.0 0.0 0.00 0.00 0.00 71 1011.8
20260905174517 85 140 0.0 2.0 0.00 0.00 0.00 74 1011.9
20260905173046 84 138 0.0 0.0 0.00 0.00 0.00 76 1012.0
20260905171518 82 121 2.0 10.0 0.00 0.00 0.00 80 1012.2
20260905170016 80 115 0.0 0.0 0.00 0.00 0.00 84 1012.3
20260905164512 78 82 0.0 0.0 0.00 0.00 0.00 87 1012.5
20260905163013 76 117 0.0 4.0 0.00 0.00 0.00 88 1012.8
20260905161509 75 205 0.0 3.0 0.00 0.00 0.00 88 1012.9
20260905160007 74 232 0.0 2.0 0.00 0.00 0.00 87 1013.0
20260905154507 75 194 1.0 7.0 0.00 0.00 0.00 85 1013.5
20260905153037 77 232 0.0 0.0 0.00 0.00 0.00 83 1013.7
20260905151545 78 231 0.0 0.0 0.00 0.00 0.00 82 1013.3
20260905150006 77 119 0.0 0.0 0.00 0.00 0.00 80 1012.8
20260905144506 77 86 1.0 8.0 0.00 0.00 0.00 80 1012.1
20260905143004 76 87 0.0 1.0 0.00 0.00 0.00 80 1012.2
20260905141520 76 105 1.0 9.0 0.00 0.00 0.00 82 1012.2
20260905140004 74 90 0.0 3.0 0.00 0.00 0.00 86 1012.1
20260905134502 72 99 0.0 10.0 0.00 0.00 0.00 87 1012.5
20260905133034 71 84 1.0 7.0 0.00 0.00 0.00 89 1012.2
20260905131532 70 110 2.0 7.0 0.00 0.00 0.00 89 1012.4
20260905130029 69 90 1.0 4.0 0.00 0.00 0.00 89 1012.6
20260905124536 68 85 0.0 3.0 0.00 0.00 0.00 89 1012.8
20260905123028 68 244 0.0 2.0 0.00 0.00 0.00 89 1013.3
20260905121527 68 221 0.0 3.0 0.00 0.00 0.00 89 1013.0
20260905120026 67 227 0.0 1.0 0.00 0.00 0.00 89 1012.8
20260905114524 68 227 0.0 0.0 0.00 0.00 0.00 89 1012.5
20260905113024 68 240 0.0 1.0 0.00 0.00 0.00 89 1012.6
20260905111522 68 240 0.0 1.0 0.00 0.00 0.00 89 1012.8
20260905110019 68 132 0.0 1.0 0.00 0.00 0.00 89 1012.7
20260905104520 68 267 0.0 2.0 0.00 0.00 0.00 89 1012.6
20260905103018 68 275 0.0 4.0 0.00 0.00 0.00 89 1013.4
20260905101524 69 252 2.0 7.0 0.00 0.00 0.00 88 1013.2
20260905100010 70 271 2.0 7.0 0.00 0.00 0.00 87 1013.9
20260905094509 70 273 0.0 8.0 0.00 0.00 0.00 86 1013.2
20260905093006 71 240 1.0 8.0 0.00 0.00 0.00 84 1013.5
20260905091509 71 241 4.0 12.0 0.00 0.00 0.00 84 1013.3
20260905090002 71 267 4.0 14.0 0.00 0.00 0.00 86 1013.1
20260905084601 73 254 8.0 19.0 0.00 0.00 0.00 89 1012.9
20260905083059 73 73 0.0 0.0 0.00 0.00 0.00 89 1011.9
20260905081555 73 73 0.0 0.0 0.00 0.00 0.00 89 1011.7
20260905080104 74 73 0.0 0.0 0.00 0.00 0.00 89 1011.5
20260905074553 74 73 0.0 0.0 0.00 0.00 0.00 89 1011.2
20260905073053 73 73 0.0 0.0 0.00 0.00 0.00 88 1011.5